GEFSMW_prec_meanprecacc_336.txt.gz
Total_Precipitation_Accumulation
0.53 0.48 0.45 0.52 0.52 0.47 0.44 0.50 0.57 0.61 0.62 0.73 0.87 0.99 1.10 1.24 1.43 1.50 1.54 1.67 1.71 1.72 1.85 1.95 2.02 1.98 1.91 2.00 2.20 2.63 2.60 2.30 2.06 2.05 1.94 1.80 1.74 1.76 1.70 1.81 1.88 1.78 1.73
0.43 0.39 0.39 0.41 0.43 0.44 0.43 0.45 0.57 0.66 0.70 0.76 0.91 1.10 1.35 1.41 1.56 1.77 1.77 1.76 1.80 1.85 1.92 2.12 2.23 2.19 2.19 2.27 2.34 2.65 2.88 2.65 2.45 2.46 2.66 2.44 2.22 1.85 1.55 1.57 1.66 1.71 1.75
0.37 0.30 0.33 0.38 0.39 0.42 0.49 0.53 0.64 0.83 1.00 1.08 1.32 1.65 1.91 1.97 1.91 1.95 2.01 2.00 2.00 2.06 2.01 2.08 2.27 2.29 2.28 2.36 2.57 2.88 3.25 3.27 2.96 2.72 2.94 2.73 2.43 2.31 1.79 1.45 1.47 1.61 1.73
0.45 0.36 0.35 0.39 0.38 0.44 0.58 0.76 0.97 1.25 1.47 1.58 1.76 2.03 2.18 2.23 2.12 2.10 2.12 2.16 2.08 2.01 2.01 2.06 2.21 2.38 2.52 2.65 2.71 2.68 3.14 3.52 3.36 3.12 2.72 2.44 2.30 2.44 2.31 1.82 1.48 1.50 1.56
0.48 0.49 0.48 0.54 0.56 0.67 0.89 1.24 1.52 1.72 1.85 1.89 1.93 2.18 2.33 2.50 2.50 2.37 2.23 2.18 2.19 2.15 2.05 2.02 2.04 2.08 2.20 2.36 2.51 2.57 2.85 3.13 3.34 3.31 3.08 2.77 2.58 2.12 2.13 2.20 1.96 1.66 1.42
0.54 0.65 0.79 0.92 0.99 1.09 1.32 1.56 1.73 1.88 1.85 1.83 1.84 1.98 2.18 2.35 2.37 2.39 2.35 2.27 2.20 2.13 1.99 1.90 1.94 1.96 1.96 2.10 2.23 2.36 2.65 2.88 3.05 3.14 3.05 2.96 2.89 2.58 2.27 2.06 2.02 1.88 1.63
0.63 0.86 1.04 1.18 1.28 1.39 1.51 1.58 1.56 1.65 1.68 1.65 1.67 1.73 1.80 1.84 1.89 2.01 1.94 1.83 1.75 1.70 1.66 1.57 1.60 1.71 1.78 1.93 2.01 1.98 2.07 2.29 2.53 2.73 2.81 2.85 2.76 2.68 2.59 2.41 2.15 1.89 1.56
0.91 1.04 1.16 1.27 1.32 1.46 1.53 1.49 1.45 1.44 1.38 1.34 1.40 1.44 1.46 1.53 1.52 1.50 1.48 1.40 1.36 1.35 1.31 1.30 1.30 1.35 1.41 1.60 1.82 1.84 1.87 1.96 2.08 2.15 2.46 2.66 2.64 2.66 2.45 2.33 2.34 2.08 1.73
1.15 1.33 1.34 1.26 1.22 1.28 1.37 1.34 1.29 1.24 1.15 1.08 1.14 1.20 1.31 1.30 1.24 1.18 1.12 1.13 1.05 1.07 1.05 1.10 1.19 1.25 1.24 1.33 1.45 1.65 1.72 1.81 1.90 1.90 2.09 2.28 2.37 2.38 2.22 2.23 2.32 2.24 1.93
1.26 1.53 1.64 1.52 1.29 1.12 1.16 1.13 1.12 1.17 1.17 1.13 1.13 1.12 1.06 0.99 0.95 0.95 0.87 0.86 0.92 0.94 0.96 0.96 1.01 1.09 1.12 1.22 1.33 1.35 1.46 1.56 1.75 1.92 2.04 2.10 2.14 2.22 2.14 2.12 2.22 2.21 2.04
1.47 1.59 1.62 1.49 1.35 1.08 1.02 1.01 1.01 1.07 1.16 1.10 1.12 1.10 0.98 0.86 0.81 0.76 0.70 0.71 0.76 0.80 0.80 0.85 0.96 0.98 1.01 1.06 1.07 1.10 1.16 1.23 1.35 1.42 1.57 1.80 2.00 2.11 2.13 2.16 2.21 2.23 2.08
1.17 1.17 1.27 1.30 1.23 1.09 1.02 1.08 1.13 1.15 1.12 1.08 1.05 1.02 0.95 0.86 0.84 0.77 0.68 0.71 0.76 0.77 0.77 0.84 0.90 0.91 0.97 1.00 0.98 0.99 1.06 1.17 1.25 1.27 1.29 1.41 1.69 1.87 2.00 2.09 2.11 2.17 2.11
0.92 0.86 0.97 1.13 1.08 1.01 1.03 1.12 1.26 1.28 1.21 1.11 1.03 1.01 0.97 0.95 0.97 0.85 0.76 0.75 0.82 0.93 0.95 0.94 0.98 0.94 0.96 0.98 0.96 0.99 1.04 1.06 1.12 1.16 1.17 1.26 1.39 1.55 1.66 1.77 1.88 1.96 2.07
0.77 0.74 0.69 0.74 0.77 0.80 0.81 0.92 1.18 1.41 1.39 1.27 1.14 1.09 1.09 1.12 1.09 0.95 0.87 0.80 0.80 0.84 0.85 0.92 0.99 1.06 1.10 1.07 1.03 1.05 1.07 1.02 1.03 1.09 1.15 1.19 1.22 1.41 1.63 1.73 1.81 1.86 1.97
0.60 0.56 0.51 0.50 0.50 0.55 0.63 0.77 1.07 1.30 1.30 1.27 1.12 1.03 1.00 0.98 0.95 0.95 1.00 0.92 0.81 0.75 0.73 0.81 0.89 0.99 1.08 1.12 1.12 1.00 0.92 0.94 1.00 0.99 0.98 1.05 1.17 1.29 1.50 1.60 1.81 1.85 1.99
0.53 0.52 0.47 0.42 0.37 0.37 0.45 0.56 0.76 0.97 1.05 1.07 1.01 0.91 0.91 0.87 0.79 0.84 0.96 1.00 0.87 0.79 0.74 0.73 0.72 0.75 0.79 1.00 1.00 0.89 0.78 0.83 0.95 1.02 0.99 0.97 1.04 1.11 1.20 1.24 1.47 1.68 1.84
0.52 0.53 0.52 0.47 0.44 0.42 0.42 0.45 0.53 0.68 0.78 0.82 0.79 0.69 0.72 0.84 0.88 0.91 0.92 0.84 0.77 0.78 0.77 0.69 0.62 0.62 0.69 0.76 0.74 0.80 0.77 0.79 0.87 0.95 1.01 1.05 1.01 1.08 1.16 1.17 1.26 1.36 1.44
0.51 0.50 0.49 0.43 0.42 0.43 0.44 0.48 0.50 0.53 0.57 0.56 0.55 0.51 0.58 0.75 0.79 0.76 0.74 0.68 0.67 0.70 0.75 0.67 0.63 0.68 0.69 0.72 0.74 0.78 0.75 0.86 0.94 0.94 0.92 1.05 1.09 1.12 1.28 1.28 1.36 1.30 1.21
0.29 0.32 0.36 0.32 0.30 0.31 0.35 0.37 0.36 0.40 0.40 0.39 0.41 0.48 0.51 0.53 0.54 0.52 0.54 0.59 0.64 0.65 0.60 0.62 0.76 0.76 0.77 0.89 0.81 0.72 0.75 0.87 0.95 0.89 0.92 1.04 1.10 1.29 1.41 1.42 1.42 1.31 1.24
0.16 0.22 0.32 0.35 0.30 0.29 0.33 0.34 0.35 0.37 0.38 0.39 0.43 0.46 0.49 0.52 0.51 0.52 0.53 0.56 0.60 0.64 0.65 0.68 0.80 0.84 0.85 0.89 0.76 0.74 0.80 0.90 0.97 0.95 0.94 1.15 1.13 1.25 1.31 1.34 1.45 1.45 1.33
0.16 0.20 0.26 0.33 0.32 0.31 0.32 0.33 0.34 0.38 0.44 0.47 0.45 0.45 0.48 0.52 0.55 0.58 0.57 0.57 0.59 0.62 0.68 0.70 0.72 0.70 0.67 0.67 0.68 0.72 0.74 0.84 0.92 0.89 0.89 0.86 1.02 1.07 1.17 1.27 1.31 1.55 1.49
0.14 0.18 0.21 0.30 0.33 0.34 0.35 0.38 0.38 0.39 0.46 0.49 0.47 0.47 0.50 0.51 0.56 0.64 0.64 0.62 0.63 0.62 0.63 0.67 0.72 0.71 0.64 0.61 0.61 0.67 0.75 0.85 0.83 0.77 0.81 0.81 0.94 0.98 1.04 1.03 1.21 1.44 1.44
0.15 0.18 0.20 0.27 0.32 0.36 0.40 0.43 0.42 0.42 0.43 0.46 0.50 0.52 0.53 0.52 0.53 0.58 0.63 0.64 0.65 0.64 0.64 0.67 0.71 0.69 0.67 0.68 0.71 0.70 0.76 0.78 0.70 0.63 0.79 0.87 0.95 0.92 0.86 0.99 1.20 1.25 1.28
0.11 0.14 0.17 0.22 0.30 0.36 0.38 0.45 0.47 0.47 0.48 0.50 0.55 0.59 0.60 0.59 0.58 0.61 0.65 0.68 0.68 0.67 0.64 0.65 0.72 0.75 0.73 0.70 0.66 0.64 0.66 0.66 0.64 0.65 0.83 1.00 1.04 0.97 0.90 0.96 1.09 1.13 1.25
0.15 0.14 0.15 0.18 0.24 0.31 0.35 0.42 0.47 0.52 0.52 0.52 0.58 0.64 0.65 0.65 0.66 0.67 0.68 0.66 0.65 0.69 0.67 0.65 0.69 0.70 0.68 0.70 0.74 0.69 0.67 0.67 0.68 0.78 0.94 1.09 1.11 1.11 1.04 1.05 1.13 1.10 1.08
0.16 0.16 0.17 0.17 0.19 0.24 0.28 0.33 0.37 0.46 0.53 0.57 0.57 0.58 0.65 0.68 0.66 0.65 0.65 0.68 0.68 0.72 0.70 0.67 0.69 0.68 0.68 0.73 0.74 0.75 0.75 0.74 0.85 1.01 1.14 1.25 1.32 1.34 1.30 1.25 1.21 1.12 1.08

GEFSMW_prec_meanprecacc_342.txt.gz
Total_Precipitation_Accumulation
0.54 0.49 0.46 0.53 0.54 0.48 0.45 0.52 0.59 0.63 0.64 0.75 0.89 1.01 1.12 1.27 1.47 1.52 1.56 1.68 1.73 1.73 1.85 1.96 2.03 1.99 1.93 2.01 2.21 2.64 2.60 2.30 2.07 2.05 1.94 1.80 1.75 1.77 1.71 1.82 1.88 1.79 1.74
0.46 0.41 0.39 0.41 0.44 0.44 0.43 0.46 0.58 0.68 0.72 0.79 0.93 1.11 1.37 1.44 1.58 1.79 1.79 1.78 1.83 1.86 1.93 2.13 2.24 2.20 2.20 2.28 2.35 2.65 2.88 2.65 2.45 2.47 2.67 2.44 2.23 1.86 1.56 1.59 1.66 1.71 1.75
0.39 0.32 0.34 0.38 0.39 0.42 0.50 0.54 0.66 0.85 1.01 1.10 1.34 1.67 1.94 1.99 1.93 1.96 2.02 2.02 2.03 2.08 2.03 2.10 2.28 2.30 2.29 2.37 2.57 2.88 3.26 3.27 2.96 2.72 2.94 2.73 2.44 2.32 1.80 1.47 1.49 1.62 1.73
0.47 0.37 0.35 0.39 0.39 0.44 0.58 0.77 0.97 1.26 1.48 1.59 1.77 2.04 2.19 2.24 2.12 2.11 2.13 2.17 2.09 2.02 2.02 2.07 2.22 2.39 2.52 2.66 2.71 2.69 3.15 3.53 3.36 3.12 2.72 2.44 2.31 2.45 2.32 1.84 1.51 1.53 1.57
0.50 0.50 0.49 0.54 0.56 0.67 0.89 1.24 1.53 1.72 1.86 1.89 1.94 2.19 2.34 2.51 2.51 2.38 2.24 2.19 2.20 2.16 2.06 2.03 2.05 2.09 2.21 2.37 2.51 2.58 2.85 3.14 3.35 3.32 3.08 2.77 2.58 2.13 2.14 2.21 1.97 1.68 1.43
0.55 0.66 0.79 0.92 0.99 1.09 1.32 1.56 1.73 1.88 1.86 1.83 1.85 1.99 2.19 2.37 2.39 2.40 2.36 2.28 2.21 2.14 2.01 1.92 1.96 1.97 1.96 2.10 2.24 2.37 2.66 2.89 3.06 3.14 3.05 2.96 2.89 2.58 2.27 2.08 2.04 1.90 1.64
0.64 0.87 1.05 1.19 1.28 1.39 1.51 1.58 1.57 1.66 1.69 1.67 1.68 1.74 1.81 1.85 1.90 2.02 1.96 1.86 1.77 1.71 1.68 1.59 1.61 1.72 1.78 1.93 2.01 1.98 2.08 2.30 2.53 2.74 2.81 2.86 2.76 2.68 2.60 2.43 2.17 1.90 1.56
0.92 1.05 1.16 1.27 1.33 1.47 1.53 1.49 1.46 1.44 1.39 1.35 1.41 1.45 1.47 1.54 1.53 1.51 1.49 1.42 1.37 1.36 1.32 1.31 1.31 1.37 1.43 1.61 1.82 1.85 1.88 1.97 2.08 2.16 2.47 2.67 2.64 2.67 2.46 2.35 2.36 2.09 1.74
1.18 1.35 1.34 1.26 1.23 1.29 1.37 1.35 1.29 1.24 1.15 1.09 1.15 1.22 1.32 1.32 1.26 1.19 1.13 1.14 1.07 1.08 1.06 1.10 1.20 1.27 1.26 1.35 1.47 1.65 1.72 1.81 1.90 1.90 2.09 2.29 2.38 2.39 2.24 2.26 2.35 2.26 1.94
1.29 1.56 1.66 1.53 1.30 1.14 1.17 1.14 1.13 1.18 1.18 1.14 1.14 1.13 1.08 1.01 0.97 0.97 0.89 0.88 0.95 0.97 0.98 0.96 1.02 1.11 1.15 1.25 1.36 1.38 1.48 1.57 1.75 1.92 2.05 2.10 2.15 2.22 2.15 2.14 2.25 2.24 2.07
1.49 1.62 1.64 1.51 1.36 1.10 1.04 1.03 1.03 1.09 1.18 1.11 1.13 1.11 1.00 0.88 0.83 0.77 0.71 0.73 0.79 0.83 0.83 0.87 0.97 1.00 1.03 1.09 1.10 1.13 1.19 1.25 1.37 1.43 1.57 1.80 2.01 2.11 2.14 2.20 2.25 2.26 2.10
1.19 1.19 1.29 1.32 1.25 1.11 1.04 1.11 1.16 1.18 1.15 1.10 1.07 1.03 0.97 0.87 0.86 0.78 0.69 0.72 0.77 0.79 0.80 0.86 0.92 0.92 0.99 1.03 1.00 1.01 1.08 1.19 1.27 1.28 1.31 1.42 1.69 1.87 2.01 2.13 2.16 2.20 2.14
0.93 0.88 0.99 1.15 1.09 1.03 1.05 1.15 1.29 1.31 1.25 1.14 1.06 1.04 0.99 0.97 0.99 0.86 0.77 0.76 0.84 0.95 0.97 0.96 0.99 0.95 0.97 0.99 0.98 1.02 1.06 1.08 1.14 1.18 1.18 1.28 1.40 1.56 1.67 1.80 1.93 1.99 2.10
0.77 0.75 0.71 0.77 0.80 0.83 0.83 0.95 1.20 1.44 1.42 1.29 1.17 1.11 1.12 1.15 1.12 0.97 0.90 0.82 0.82 0.85 0.87 0.94 1.00 1.07 1.11 1.08 1.05 1.09 1.11 1.05 1.06 1.11 1.18 1.22 1.24 1.42 1.65 1.76 1.86 1.90 2.00
0.61 0.57 0.53 0.52 0.53 0.58 0.66 0.79 1.09 1.32 1.33 1.29 1.14 1.05 1.02 1.01 0.98 0.99 1.03 0.96 0.83 0.77 0.75 0.83 0.90 1.00 1.09 1.13 1.13 1.02 0.95 0.97 1.04 1.03 1.01 1.08 1.20 1.33 1.54 1.63 1.86 1.89 2.02
0.54 0.54 0.50 0.45 0.40 0.40 0.47 0.58 0.78 0.99 1.07 1.09 1.03 0.92 0.92 0.89 0.82 0.87 0.99 1.03 0.91 0.83 0.77 0.76 0.74 0.77 0.81 1.02 1.03 0.91 0.79 0.84 0.98 1.05 1.02 1.01 1.08 1.16 1.25 1.29 1.53 1.74 1.88
0.54 0.56 0.54 0.49 0.46 0.44 0.45 0.47 0.55 0.69 0.80 0.83 0.80 0.70 0.73 0.86 0.90 0.95 0.96 0.88 0.81 0.83 0.82 0.73 0.66 0.65 0.71 0.79 0.77 0.83 0.80 0.82 0.89 0.98 1.05 1.08 1.05 1.12 1.20 1.21 1.30 1.41 1.47
0.53 0.52 0.50 0.44 0.43 0.44 0.46 0.50 0.51 0.54 0.58 0.57 0.56 0.53 0.60 0.77 0.82 0.79 0.76 0.72 0.71 0.75 0.80 0.72 0.68 0.72 0.72 0.75 0.77 0.81 0.78 0.89 0.97 0.97 0.96 1.09 1.13 1.16 1.32 1.31 1.38 1.32 1.24
0.30 0.32 0.36 0.33 0.31 0.32 0.36 0.38 0.37 0.41 0.41 0.41 0.43 0.50 0.54 0.56 0.57 0.55 0.56 0.62 0.68 0.69 0.63 0.66 0.80 0.79 0.81 0.92 0.84 0.75 0.77 0.89 0.97 0.92 0.95 1.07 1.15 1.34 1.46 1.45 1.44 1.34 1.26
0.16 0.23 0.33 0.36 0.30 0.30 0.34 0.35 0.35 0.38 0.38 0.40 0.45 0.48 0.52 0.55 0.54 0.54 0.56 0.59 0.63 0.66 0.67 0.70 0.82 0.86 0.88 0.92 0.79 0.76 0.82 0.92 0.99 0.98 0.96 1.18 1.17 1.30 1.36 1.38 1.48 1.47 1.36
0.17 0.21 0.27 0.34 0.33 0.31 0.33 0.33 0.35 0.38 0.45 0.48 0.46 0.46 0.50 0.54 0.58 0.62 0.61 0.60 0.62 0.65 0.70 0.72 0.74 0.72 0.69 0.69 0.70 0.74 0.75 0.85 0.94 0.92 0.92 0.88 1.06 1.11 1.21 1.31 1.36 1.60 1.53
0.16 0.19 0.22 0.31 0.34 0.35 0.37 0.39 0.39 0.40 0.47 0.50 0.48 0.48 0.52 0.53 0.57 0.67 0.69 0.68 0.69 0.67 0.68 0.71 0.76 0.74 0.67 0.63 0.63 0.69 0.76 0.86 0.84 0.79 0.83 0.84 0.98 1.02 1.08 1.08 1.25 1.48 1.48
0.16 0.19 0.21 0.28 0.33 0.37 0.42 0.45 0.44 0.43 0.45 0.47 0.50 0.53 0.54 0.54 0.54 0.60 0.66 0.69 0.72 0.72 0.71 0.72 0.76 0.74 0.70 0.70 0.73 0.73 0.79 0.81 0.73 0.65 0.81 0.89 0.98 0.96 0.90 1.03 1.24 1.29 1.31
0.12 0.15 0.17 0.23 0.31 0.37 0.40 0.47 0.49 0.48 0.49 0.51 0.56 0.60 0.61 0.60 0.59 0.61 0.66 0.70 0.71 0.72 0.70 0.69 0.76 0.80 0.78 0.73 0.68 0.67 0.69 0.69 0.67 0.68 0.86 1.02 1.07 1.01 0.94 1.00 1.13 1.16 1.28
0.15 0.14 0.16 0.19 0.25 0.32 0.37 0.44 0.50 0.55 0.54 0.54 0.60 0.65 0.67 0.66 0.66 0.67 0.68 0.67 0.66 0.70 0.70 0.69 0.74 0.75 0.72 0.74 0.77 0.72 0.69 0.69 0.71 0.81 0.97 1.11 1.13 1.15 1.07 1.07 1.15 1.13 1.11
0.17 0.17 0.17 0.17 0.20 0.26 0.30 0.36 0.40 0.48 0.55 0.59 0.59 0.59 0.66 0.69 0.66 0.66 0.66 0.68 0.69 0.73 0.72 0.69 0.72 0.72 0.72 0.77 0.78 0.80 0.79 0.78 0.89 1.04 1.16 1.27 1.34 1.35 1.32 1.28 1.24 1.15 1.11

GEFSMW_prec_meanprecacc_348.txt.gz
Total_Precipitation_Accumulation
0.55 0.50 0.47 0.53 0.55 0.50 0.47 0.55 0.63 0.67 0.68 0.78 0.91 1.03 1.15 1.30 1.50 1.55 1.60 1.71 1.75 1.75 1.87 1.98 2.04 2.00 1.94 2.02 2.23 2.65 2.61 2.31 2.07 2.05 1.94 1.80 1.75 1.77 1.72 1.82 1.89 1.79 1.74
0.47 0.42 0.41 0.42 0.44 0.45 0.45 0.48 0.60 0.71 0.74 0.80 0.94 1.13 1.39 1.46 1.61 1.82 1.81 1.80 1.85 1.88 1.94 2.15 2.26 2.22 2.22 2.30 2.37 2.67 2.89 2.66 2.45 2.47 2.67 2.44 2.23 1.86 1.56 1.59 1.67 1.71 1.75
0.40 0.33 0.35 0.39 0.40 0.42 0.51 0.55 0.67 0.87 1.03 1.11 1.35 1.68 1.95 2.01 1.95 1.98 2.04 2.04 2.05 2.10 2.04 2.12 2.29 2.32 2.32 2.39 2.60 2.90 3.27 3.28 2.97 2.72 2.94 2.73 2.44 2.32 1.80 1.47 1.49 1.62 1.73
0.48 0.39 0.36 0.39 0.39 0.44 0.58 0.77 0.98 1.28 1.49 1.60 1.78 2.05 2.19 2.24 2.14 2.12 2.15 2.19 2.11 2.04 2.05 2.09 2.24 2.40 2.55 2.69 2.73 2.70 3.16 3.54 3.36 3.12 2.72 2.44 2.31 2.45 2.32 1.84 1.51 1.53 1.57
0.51 0.51 0.49 0.55 0.57 0.68 0.90 1.25 1.53 1.73 1.87 1.90 1.95 2.20 2.35 2.51 2.52 2.39 2.26 2.22 2.21 2.17 2.07 2.04 2.07 2.10 2.22 2.38 2.52 2.59 2.86 3.15 3.36 3.32 3.08 2.77 2.58 2.13 2.14 2.22 1.97 1.69 1.44
0.57 0.67 0.81 0.94 1.01 1.11 1.33 1.57 1.73 1.88 1.87 1.85 1.87 2.00 2.20 2.38 2.40 2.40 2.37 2.29 2.23 2.15 2.02 1.94 1.99 1.99 1.98 2.11 2.24 2.38 2.66 2.89 3.06 3.15 3.06 2.96 2.89 2.58 2.28 2.08 2.04 1.90 1.65
0.65 0.88 1.07 1.21 1.30 1.41 1.53 1.59 1.57 1.66 1.70 1.68 1.70 1.75 1.82 1.86 1.91 2.03 1.97 1.87 1.78 1.72 1.69 1.61 1.63 1.73 1.79 1.95 2.02 1.99 2.08 2.30 2.54 2.74 2.82 2.86 2.77 2.69 2.60 2.43 2.18 1.91 1.57
0.93 1.07 1.19 1.30 1.35 1.48 1.54 1.51 1.46 1.45 1.40 1.37 1.43 1.47 1.49 1.55 1.54 1.52 1.50 1.43 1.38 1.37 1.34 1.33 1.33 1.39 1.45 1.63 1.84 1.86 1.89 1.97 2.09 2.17 2.47 2.67 2.64 2.67 2.46 2.35 2.37 2.10 1.75
1.20 1.38 1.38 1.29 1.25 1.31 1.39 1.36 1.30 1.25 1.16 1.11 1.17 1.23 1.33 1.33 1.26 1.20 1.14 1.15 1.08 1.11 1.09 1.13 1.22 1.29 1.28 1.37 1.49 1.68 1.74 1.82 1.91 1.91 2.10 2.29 2.38 2.40 2.24 2.26 2.36 2.27 1.96
1.30 1.57 1.67 1.55 1.32 1.16 1.19 1.16 1.15 1.20 1.19 1.16 1.16 1.15 1.09 1.02 0.98 0.98 0.90 0.89 0.96 0.99 1.00 0.99 1.04 1.12 1.16 1.26 1.37 1.40 1.50 1.59 1.76 1.93 2.05 2.11 2.15 2.23 2.16 2.15 2.26 2.26 2.09
1.51 1.64 1.67 1.54 1.39 1.12 1.05 1.04 1.04 1.11 1.19 1.12 1.14 1.13 1.02 0.89 0.84 0.78 0.72 0.74 0.81 0.85 0.86 0.89 0.99 1.01 1.04 1.10 1.11 1.14 1.20 1.27 1.38 1.44 1.58 1.81 2.01 2.12 2.14 2.20 2.26 2.28 2.14
1.21 1.23 1.33 1.36 1.27 1.13 1.06 1.13 1.17 1.20 1.16 1.11 1.09 1.05 0.98 0.89 0.87 0.79 0.69 0.73 0.79 0.80 0.82 0.89 0.94 0.94 1.00 1.03 1.01 1.03 1.09 1.20 1.28 1.30 1.33 1.45 1.71 1.88 2.02 2.13 2.17 2.22 2.18
0.94 0.90 1.01 1.17 1.11 1.04 1.07 1.17 1.31 1.33 1.27 1.16 1.08 1.07 1.02 0.99 1.01 0.88 0.78 0.78 0.85 0.96 1.00 0.99 1.02 0.97 0.98 1.00 0.99 1.04 1.09 1.10 1.15 1.19 1.20 1.31 1.43 1.58 1.69 1.82 1.95 2.02 2.14
0.79 0.76 0.72 0.78 0.81 0.84 0.85 0.97 1.23 1.46 1.45 1.32 1.19 1.14 1.15 1.18 1.15 0.99 0.92 0.83 0.83 0.86 0.89 0.96 1.03 1.10 1.14 1.11 1.07 1.11 1.13 1.08 1.08 1.13 1.20 1.23 1.26 1.45 1.67 1.78 1.89 1.94 2.05
0.61 0.57 0.54 0.54 0.55 0.59 0.67 0.81 1.12 1.35 1.36 1.32 1.16 1.07 1.05 1.05 1.01 1.02 1.06 0.97 0.85 0.78 0.76 0.84 0.93 1.03 1.12 1.16 1.16 1.04 0.98 1.00 1.06 1.05 1.03 1.10 1.22 1.36 1.57 1.66 1.89 1.93 2.07
0.55 0.55 0.50 0.46 0.43 0.43 0.49 0.60 0.80 1.01 1.10 1.12 1.05 0.94 0.96 0.93 0.86 0.90 1.01 1.05 0.92 0.85 0.79 0.77 0.76 0.79 0.84 1.05 1.06 0.94 0.82 0.87 1.00 1.07 1.05 1.04 1.11 1.19 1.29 1.33 1.58 1.78 1.92
0.54 0.56 0.55 0.50 0.49 0.47 0.48 0.49 0.57 0.72 0.82 0.85 0.82 0.73 0.76 0.90 0.94 0.98 0.98 0.90 0.83 0.85 0.84 0.75 0.67 0.67 0.74 0.82 0.80 0.86 0.83 0.84 0.91 1.00 1.07 1.11 1.08 1.16 1.24 1.27 1.38 1.49 1.55
0.54 0.53 0.51 0.45 0.45 0.47 0.48 0.52 0.52 0.56 0.60 0.59 0.58 0.54 0.63 0.80 0.85 0.81 0.79 0.74 0.73 0.77 0.83 0.75 0.70 0.74 0.75 0.78 0.80 0.84 0.81 0.91 0.99 0.99 0.98 1.11 1.16 1.21 1.37 1.36 1.43 1.38 1.32
0.32 0.34 0.37 0.34 0.31 0.34 0.38 0.40 0.38 0.42 0.43 0.42 0.44 0.52 0.56 0.59 0.60 0.58 0.59 0.65 0.71 0.72 0.67 0.70 0.84 0.84 0.86 0.97 0.88 0.79 0.79 0.91 0.98 0.93 0.96 1.08 1.16 1.37 1.50 1.49 1.48 1.38 1.31
0.17 0.24 0.34 0.36 0.31 0.31 0.36 0.37 0.37 0.39 0.39 0.41 0.46 0.50 0.54 0.58 0.57 0.58 0.59 0.62 0.66 0.71 0.73 0.75 0.87 0.91 0.93 0.98 0.86 0.82 0.86 0.94 1.01 0.99 0.97 1.19 1.18 1.32 1.39 1.43 1.54 1.52 1.39
0.18 0.22 0.28 0.35 0.34 0.34 0.35 0.35 0.37 0.40 0.46 0.49 0.47 0.49 0.52 0.57 0.62 0.65 0.64 0.64 0.65 0.69 0.74 0.77 0.80 0.78 0.74 0.75 0.77 0.82 0.82 0.89 0.96 0.94 0.93 0.89 1.07 1.12 1.23 1.34 1.41 1.67 1.59
0.16 0.20 0.24 0.33 0.36 0.38 0.38 0.41 0.41 0.41 0.48 0.51 0.49 0.50 0.54 0.56 0.61 0.71 0.73 0.72 0.72 0.71 0.72 0.76 0.81 0.81 0.75 0.71 0.70 0.77 0.84 0.92 0.87 0.80 0.84 0.85 1.00 1.04 1.10 1.11 1.31 1.56 1.57
0.17 0.20 0.23 0.30 0.36 0.39 0.44 0.46 0.45 0.45 0.46 0.48 0.52 0.55 0.57 0.56 0.57 0.62 0.68 0.71 0.74 0.76 0.76 0.76 0.80 0.78 0.77 0.78 0.80 0.81 0.86 0.87 0.77 0.68 0.83 0.91 1.00 0.99 0.93 1.08 1.31 1.36 1.38
0.12 0.16 0.18 0.24 0.32 0.38 0.41 0.48 0.50 0.49 0.51 0.53 0.58 0.61 0.63 0.63 0.62 0.64 0.68 0.71 0.73 0.75 0.73 0.73 0.79 0.82 0.81 0.78 0.75 0.75 0.77 0.75 0.72 0.72 0.89 1.06 1.11 1.05 0.99 1.05 1.17 1.19 1.31
0.16 0.15 0.16 0.20 0.26 0.33 0.38 0.45 0.51 0.56 0.56 0.56 0.62 0.68 0.69 0.69 0.69 0.69 0.70 0.69 0.68 0.73 0.73 0.72 0.76 0.78 0.76 0.79 0.85 0.81 0.78 0.76 0.77 0.86 1.00 1.14 1.17 1.20 1.13 1.11 1.18 1.15 1.13
0.18 0.18 0.18 0.18 0.21 0.26 0.30 0.37 0.41 0.50 0.58 0.62 0.62 0.62 0.69 0.71 0.69 0.68 0.68 0.70 0.70 0.75 0.73 0.71 0.73 0.74 0.75 0.81 0.84 0.87 0.89 0.86 0.96 1.09 1.20 1.29 1.36 1.38 1.35 1.31 1.26 1.17 1.13

GEFSMW_prec_meanprecacc_354.txt.gz
Total_Precipitation_Accumulation
0.56 0.51 0.47 0.54 0.56 0.51 0.49 0.56 0.63 0.68 0.69 0.80 0.93 1.05 1.17 1.32 1.52 1.57 1.63 1.74 1.77 1.77 1.88 1.98 2.05 2.01 1.95 2.04 2.25 2.66 2.63 2.32 2.07 2.06 1.95 1.81 1.75 1.77 1.72 1.82 1.89 1.79 1.74
0.47 0.43 0.41 0.43 0.45 0.46 0.47 0.50 0.62 0.72 0.75 0.81 0.96 1.15 1.41 1.48 1.62 1.83 1.82 1.81 1.86 1.89 1.95 2.16 2.28 2.24 2.24 2.32 2.39 2.69 2.91 2.67 2.46 2.48 2.68 2.45 2.24 1.86 1.56 1.59 1.67 1.71 1.76
0.40 0.34 0.36 0.39 0.40 0.44 0.53 0.58 0.70 0.88 1.05 1.13 1.37 1.70 1.97 2.03 1.96 1.99 2.05 2.05 2.06 2.10 2.06 2.13 2.30 2.33 2.34 2.41 2.61 2.91 3.29 3.30 2.98 2.72 2.95 2.74 2.45 2.33 1.80 1.48 1.49 1.62 1.74
0.49 0.40 0.37 0.40 0.39 0.45 0.60 0.81 1.02 1.31 1.52 1.62 1.79 2.06 2.21 2.26 2.15 2.14 2.16 2.20 2.12 2.06 2.07 2.11 2.26 2.42 2.57 2.70 2.73 2.71 3.18 3.56 3.38 3.13 2.73 2.44 2.31 2.46 2.32 1.84 1.51 1.54 1.58
0.52 0.52 0.50 0.56 0.58 0.69 0.92 1.28 1.56 1.77 1.90 1.93 1.98 2.22 2.37 2.53 2.54 2.40 2.27 2.23 2.23 2.18 2.09 2.06 2.08 2.12 2.23 2.39 2.53 2.60 2.88 3.16 3.37 3.33 3.09 2.77 2.58 2.13 2.14 2.22 1.98 1.69 1.44
0.60 0.69 0.82 0.94 1.01 1.12 1.35 1.59 1.75 1.90 1.90 1.88 1.90 2.02 2.21 2.39 2.42 2.42 2.38 2.30 2.23 2.16 2.03 1.95 2.00 2.00 1.99 2.12 2.25 2.39 2.68 2.90 3.08 3.16 3.07 2.97 2.90 2.59 2.28 2.09 2.05 1.91 1.65
0.68 0.90 1.08 1.22 1.31 1.41 1.53 1.60 1.61 1.68 1.72 1.70 1.73 1.78 1.84 1.88 1.93 2.05 1.99 1.88 1.78 1.73 1.71 1.62 1.64 1.75 1.81 1.97 2.04 2.00 2.10 2.32 2.56 2.76 2.83 2.87 2.77 2.69 2.61 2.44 2.18 1.91 1.58
0.94 1.08 1.19 1.31 1.35 1.49 1.55 1.51 1.48 1.48 1.43 1.40 1.45 1.48 1.50 1.57 1.56 1.53 1.51 1.44 1.39 1.39 1.36 1.34 1.35 1.41 1.46 1.64 1.85 1.87 1.90 1.99 2.10 2.18 2.48 2.69 2.65 2.68 2.47 2.36 2.38 2.11 1.76
1.21 1.38 1.38 1.30 1.25 1.32 1.40 1.37 1.31 1.27 1.18 1.14 1.19 1.24 1.35 1.34 1.28 1.21 1.15 1.16 1.09 1.12 1.12 1.15 1.24 1.30 1.28 1.37 1.50 1.69 1.75 1.84 1.92 1.92 2.12 2.31 2.40 2.40 2.25 2.27 2.37 2.28 1.97
1.31 1.58 1.69 1.57 1.33 1.17 1.20 1.17 1.15 1.21 1.20 1.17 1.17 1.16 1.10 1.02 0.98 0.99 0.91 0.90 0.97 1.00 1.01 1.00 1.06 1.14 1.17 1.27 1.38 1.41 1.51 1.59 1.77 1.95 2.07 2.12 2.17 2.24 2.17 2.16 2.27 2.27 2.10
1.52 1.66 1.70 1.57 1.41 1.13 1.06 1.05 1.06 1.12 1.20 1.14 1.16 1.14 1.03 0.90 0.86 0.79 0.73 0.75 0.81 0.86 0.86 0.90 1.00 1.03 1.05 1.11 1.11 1.14 1.21 1.27 1.39 1.46 1.61 1.84 2.04 2.13 2.15 2.21 2.27 2.29 2.15
1.21 1.24 1.35 1.36 1.27 1.13 1.06 1.14 1.19 1.21 1.18 1.13 1.11 1.06 0.99 0.89 0.89 0.80 0.70 0.74 0.80 0.81 0.83 0.91 0.95 0.95 1.01 1.05 1.02 1.04 1.11 1.22 1.29 1.31 1.34 1.46 1.73 1.91 2.04 2.15 2.19 2.23 2.19
0.94 0.91 1.02 1.17 1.11 1.05 1.08 1.18 1.32 1.35 1.29 1.17 1.09 1.08 1.03 1.00 1.02 0.89 0.80 0.79 0.86 0.97 1.00 1.00 1.04 0.99 1.00 1.01 1.01 1.05 1.10 1.11 1.17 1.20 1.21 1.31 1.44 1.60 1.72 1.85 1.98 2.05 2.16
0.79 0.77 0.73 0.78 0.81 0.85 0.86 0.98 1.24 1.48 1.47 1.34 1.20 1.15 1.15 1.18 1.16 1.01 0.94 0.85 0.84 0.87 0.90 0.97 1.04 1.11 1.15 1.12 1.08 1.13 1.15 1.09 1.09 1.14 1.20 1.24 1.27 1.46 1.69 1.81 1.93 1.97 2.09
0.62 0.58 0.54 0.54 0.56 0.61 0.69 0.83 1.14 1.37 1.38 1.35 1.18 1.08 1.07 1.05 1.02 1.04 1.08 1.00 0.86 0.79 0.77 0.85 0.93 1.04 1.13 1.17 1.17 1.06 1.00 1.02 1.07 1.06 1.04 1.12 1.24 1.37 1.58 1.68 1.92 1.97 2.12
0.55 0.55 0.50 0.46 0.44 0.45 0.52 0.63 0.84 1.04 1.12 1.14 1.07 0.96 0.97 0.94 0.87 0.91 1.03 1.08 0.94 0.86 0.80 0.78 0.77 0.80 0.85 1.06 1.08 0.95 0.84 0.89 1.02 1.09 1.06 1.05 1.12 1.21 1.31 1.36 1.61 1.81 1.96
0.55 0.56 0.55 0.50 0.50 0.50 0.50 0.52 0.61 0.75 0.85 0.88 0.84 0.74 0.77 0.91 0.95 1.00 1.00 0.91 0.85 0.87 0.85 0.76 0.68 0.69 0.75 0.84 0.82 0.88 0.85 0.86 0.93 1.02 1.09 1.13 1.10 1.18 1.26 1.29 1.40 1.51 1.58
0.55 0.54 0.51 0.46 0.47 0.49 0.50 0.54 0.55 0.59 0.64 0.62 0.60 0.56 0.64 0.82 0.88 0.84 0.81 0.75 0.74 0.79 0.85 0.77 0.71 0.75 0.77 0.80 0.82 0.86 0.82 0.93 1.02 1.01 1.00 1.14 1.18 1.22 1.39 1.38 1.46 1.41 1.36
0.33 0.35 0.38 0.35 0.33 0.35 0.40 0.42 0.40 0.43 0.45 0.45 0.46 0.53 0.57 0.60 0.64 0.63 0.62 0.66 0.72 0.74 0.68 0.71 0.85 0.85 0.87 0.98 0.90 0.81 0.81 0.93 1.01 0.97 0.99 1.11 1.19 1.39 1.52 1.52 1.51 1.41 1.34
0.18 0.26 0.35 0.37 0.31 0.32 0.38 0.39 0.39 0.40 0.41 0.42 0.48 0.52 0.55 0.60 0.61 0.64 0.65 0.67 0.69 0.73 0.74 0.77 0.89 0.92 0.95 1.01 0.88 0.85 0.89 0.98 1.05 1.03 1.02 1.23 1.21 1.35 1.41 1.45 1.56 1.54 1.42
0.19 0.23 0.29 0.36 0.35 0.35 0.36 0.37 0.40 0.42 0.48 0.50 0.49 0.50 0.53 0.58 0.64 0.71 0.72 0.71 0.71 0.73 0.78 0.79 0.82 0.80 0.76 0.78 0.80 0.85 0.86 0.94 1.03 0.99 0.97 0.93 1.10 1.14 1.25 1.36 1.43 1.70 1.61
0.17 0.21 0.25 0.34 0.38 0.40 0.40 0.43 0.43 0.44 0.50 0.52 0.50 0.51 0.56 0.58 0.63 0.74 0.79 0.78 0.79 0.77 0.77 0.79 0.84 0.85 0.79 0.74 0.74 0.80 0.88 0.99 0.95 0.87 0.90 0.90 1.05 1.08 1.13 1.14 1.35 1.60 1.61
0.17 0.21 0.24 0.31 0.37 0.41 0.45 0.48 0.47 0.47 0.49 0.50 0.53 0.56 0.59 0.59 0.59 0.65 0.72 0.76 0.80 0.81 0.80 0.81 0.85 0.82 0.80 0.81 0.84 0.84 0.89 0.92 0.84 0.76 0.91 0.99 1.07 1.04 0.98 1.12 1.36 1.41 1.42
0.13 0.16 0.20 0.26 0.34 0.39 0.42 0.49 0.51 0.51 0.53 0.55 0.61 0.64 0.66 0.66 0.64 0.66 0.70 0.74 0.77 0.79 0.77 0.76 0.83 0.86 0.84 0.80 0.77 0.77 0.80 0.79 0.77 0.80 0.98 1.14 1.19 1.13 1.06 1.12 1.24 1.25 1.35
0.16 0.16 0.17 0.21 0.28 0.34 0.38 0.46 0.52 0.57 0.58 0.58 0.65 0.72 0.73 0.72 0.72 0.72 0.72 0.71 0.70 0.76 0.76 0.75 0.79 0.81 0.78 0.81 0.86 0.83 0.80 0.78 0.81 0.92 1.09 1.24 1.28 1.32 1.24 1.21 1.25 1.20 1.18
0.19 0.19 0.19 0.19 0.22 0.27 0.31 0.37 0.42 0.51 0.59 0.64 0.65 0.67 0.73 0.75 0.71 0.70 0.70 0.73 0.73 0.79 0.77 0.74 0.77 0.76 0.77 0.83 0.85 0.89 0.91 0.89 0.99 1.15 1.25 1.37 1.45 1.47 1.45 1.41 1.35 1.23 1.17